GFSNE_prec_precacc_207.txt.gz
Total_Precipitation_Accumulation
1.51 1.43 1.42 1.28 1.32 1.41 1.57 1.89 2.41 2.23 1.42 0.92 0.89 0.88 0.88 0.90 1.06 0.95 0.78 0.99 1.05 1.03 1.04 1.10 0.99 1.03 1.00 1.06 1.19 1.13 1.37 1.67 1.65 1.61 1.69 1.81 1.66 1.65
1.53 1.61 1.60 1.56 1.53 1.37 1.30 1.40 1.59 1.96 1.82 1.04 0.94 0.99 1.15 1.34 1.72 1.70 1.61 1.81 1.43 1.21 1.14 0.93 0.80 0.66 0.59 0.61 0.65 0.67 0.77 1.04 1.27 1.36 1.44 1.70 2.15 2.11
1.76 2.03 2.17 2.26 2.38 2.35 2.41 2.52 2.60 2.69 2.66 1.72 1.37 1.27 1.25 1.25 1.24 1.14 1.19 1.17 1.25 1.45 1.23 1.09 0.87 0.70 0.63 0.57 0.54 0.50 0.50 0.57 0.74 0.89 1.05 1.12 1.24 1.61
0.74 0.97 1.04 1.21 1.45 1.56 1.72 1.85 2.17 2.63 3.05 2.42 1.77 1.61 1.48 1.33 1.12 0.88 0.80 0.85 0.89 1.20 1.20 1.13 1.04 0.94 0.92 0.92 0.82 0.69 0.58 0.51 0.48 0.51 0.58 0.73 0.84 0.94
0.58 0.62 0.73 0.72 0.73 0.74 0.80 0.90 1.04 1.18 1.42 1.39 1.09 1.00 1.02 1.15 1.26 1.18 1.04 0.95 0.88 1.15 1.06 1.04 1.08 1.05 0.96 0.90 0.92 0.98 0.97 0.77 0.56 0.48 0.49 0.53 0.71 0.88
0.36 0.37 0.34 0.41 0.56 0.70 0.88 0.98 0.92 0.80 0.72 0.65 0.60 0.53 0.50 0.54 0.64 0.68 0.65 0.57 0.49 0.50 0.57 0.57 0.65 0.69 0.78 0.81 0.73 0.70 0.78 0.96 1.07 0.99 0.80 0.73 0.70 0.75
0.46 0.43 0.50 0.56 0.60 0.56 0.46 0.37 0.37 0.41 0.43 0.47 0.43 0.33 0.28 0.25 0.27 0.29 0.33 0.39 0.44 0.50 0.41 0.34 0.27 0.23 0.28 0.43 0.59 0.72 0.74 0.78 0.88 1.03 1.10 1.04 1.00 1.03
0.39 0.43 0.48 0.60 0.43 0.39 0.30 0.26 0.22 0.27 0.26 0.22 0.17 0.12 0.10 0.12 0.16 0.24 0.35 0.48 0.49 0.33 0.35 0.31 0.27 0.21 0.16 0.16 0.28 0.41 0.55 0.64 0.71 0.74 0.87 1.06 1.06 1.03
0.27 0.24 0.22 0.20 0.17 0.13 0.19 0.21 0.25 0.23 0.19 0.14 0.10 0.07 0.07 0.08 0.18 0.26 0.27 0.33 0.24 0.12 0.26 0.35 0.30 0.31 0.22 0.24 0.25 0.23 0.34 0.45 0.51 0.59 0.68 0.77 0.94 1.15
0.16 0.13 0.09 0.04 0.03 0.03 0.05 0.11 0.09 0.11 0.16 0.19 0.17 0.17 0.21 0.25 0.32 0.45 0.34 0.28 0.16 0.09 0.17 0.28 0.16 0.22 0.20 0.22 0.32 0.30 0.34 0.35 0.37 0.43 0.52 0.65 0.75 0.84
0.07 0.03 0.02 0.01 0.03 0.05 0.06 0.03 0.01 0.01 0.09 0.18 0.29 0.41 0.49 0.51 0.41 0.42 0.51 0.54 0.40 0.14 0.09 0.16 0.11 0.15 0.16 0.17 0.20 0.29 0.32 0.38 0.46 0.53 0.48 0.50 0.63 0.74
0.03 0.02 0.03 0.03 0.05 0.08 0.10 0.06 0.08 0.02 0.06 0.08 0.11 0.19 0.28 0.33 0.39 0.31 0.28 0.57 0.54 0.62 0.29 0.47 0.27 0.24 0.53 0.16 0.15 0.22 0.25 0.30 0.33 0.40 0.65 0.75 0.69 0.70
0.03 0.02 0.02 0.04 0.10 0.13 0.14 0.09 0.13 0.12 0.10 0.09 0.06 0.11 0.18 0.28 0.33 0.35 0.37 0.55 0.84 0.68 0.18 0.87 1.06 0.52 0.91 0.35 0.08 0.11 0.14 0.20 0.28 0.34 0.45 0.63 0.87 0.90
0.04 0.03 0.02 0.08 0.13 0.11 0.12 0.11 0.15 0.17 0.10 0.06 0.07 0.08 0.15 0.22 0.28 0.36 0.49 0.61 0.63 0.74 0.36 0.62 1.48 0.71 1.09 0.87 0.34 0.13 0.16 0.18 0.24 0.30 0.37 0.58 0.76 0.89
0.04 0.07 0.10 0.11 0.11 0.08 0.08 0.11 0.11 0.09 0.09 0.13 0.10 0.09 0.11 0.16 0.31 0.51 0.65 0.74 0.86 0.82 0.76 0.83 1.07 0.90 1.24 1.27 0.66 0.26 0.31 0.28 0.24 0.27 0.37 0.52 0.64 0.72
0.07 0.10 0.14 0.13 0.12 0.10 0.11 0.11 0.09 0.11 0.17 0.24 0.19 0.14 0.19 0.29 0.43 0.50 0.67 0.65 0.89 0.72 0.72 0.90 0.90 1.17 1.50 0.95 0.89 0.64 0.30 0.49 0.40 0.38 0.46 0.45 0.53 0.70
0.39 0.25 0.18 0.12 0.10 0.11 0.11 0.12 0.19 0.26 0.33 0.31 0.39 0.43 0.40 0.40 0.40 0.39 0.62 0.81 0.98 0.63 0.54 0.58 0.79 0.90 0.95 0.97 1.15 0.62 0.44 0.38 0.33 0.51 0.60 0.54 0.45 0.66
0.46 0.29 0.17 0.13 0.12 0.13 0.18 0.23 0.28 0.36 0.38 0.47 0.54 0.55 0.63 0.62 0.56 0.56 0.62 0.77 0.76 0.51 0.58 0.64 0.71 1.04 0.97 0.80 0.76 0.70 0.66 0.44 0.32 0.33 0.45 0.85 0.48 0.33
0.41 0.15 0.11 0.13 0.15 0.17 0.24 0.31 0.33 0.27 0.40 0.62 0.71 0.71 0.78 0.82 0.83 0.74 0.57 0.69 0.66 0.53 0.57 0.69 0.93 1.35 1.56 0.73 0.40 0.45 0.85 0.70 0.47 0.45 0.44 0.56 0.60 0.35
0.20 0.14 0.10 0.12 0.19 0.28 0.32 0.39 0.44 0.46 0.52 0.56 0.66 0.67 0.82 1.01 0.88 0.68 0.61 0.71 0.75 0.70 0.68 0.63 0.71 0.96 1.68 1.15 1.08 0.44 0.41 0.82 0.99 0.72 0.44 0.41 0.55 0.47
0.09 0.16 0.13 0.16 0.28 0.37 0.43 0.54 0.65 0.66 0.62 0.77 0.69 0.67 0.64 1.01 0.87 0.59 0.68 0.62 0.77 0.84 0.71 0.37 0.28 0.57 1.06 1.50 1.52 0.63 0.53 0.57 0.81 1.20 0.95 0.95 0.51 0.41
0.11 0.21 0.24 0.31 0.40 0.50 0.60 0.65 0.73 0.61 0.60 0.55 0.49 0.54 0.61 0.83 0.94 0.77 0.68 0.84 0.61 0.47 0.46 0.38 0.52 0.70 0.94 1.35 0.87 0.43 0.41 0.45 0.51 0.51 0.70 1.39 1.66 1.41
0.30 0.41 0.42 0.44 0.51 0.64 0.75 0.78 0.67 0.49 0.41 0.52 0.54 0.53 0.64 0.85 0.60 0.69 0.71 0.71 0.67 0.78 0.60 0.60 0.57 0.63 0.74 0.76 0.83 0.69 0.49 0.41 0.35 0.37 0.41 0.42 0.44 0.47

GFSNE_prec_precacc_213.txt.gz
Total_Precipitation_Accumulation
1.54 1.45 1.45 1.33 1.37 1.49 1.73 2.09 2.63 2.43 1.52 0.96 0.94 0.94 0.96 1.00 1.12 0.98 0.79 0.99 1.05 1.03 1.04 1.10 0.99 1.03 1.00 1.06 1.19 1.13 1.37 1.67 1.65 1.61 1.69 1.81 1.66 1.65
1.60 1.67 1.63 1.59 1.58 1.45 1.40 1.54 1.73 2.11 1.96 1.16 1.04 1.07 1.26 1.43 1.76 1.72 1.61 1.81 1.43 1.21 1.14 0.93 0.80 0.66 0.59 0.61 0.65 0.67 0.77 1.04 1.27 1.36 1.44 1.70 2.15 2.11
1.82 2.08 2.22 2.28 2.40 2.39 2.49 2.65 2.71 2.77 2.73 1.81 1.44 1.32 1.30 1.29 1.25 1.14 1.19 1.17 1.25 1.45 1.23 1.09 0.87 0.70 0.63 0.57 0.54 0.50 0.50 0.57 0.74 0.89 1.05 1.12 1.24 1.61
0.79 1.04 1.15 1.28 1.50 1.59 1.77 1.96 2.31 2.75 3.14 2.48 1.82 1.65 1.50 1.34 1.12 0.88 0.80 0.85 0.89 1.20 1.20 1.13 1.04 0.94 0.92 0.92 0.82 0.69 0.58 0.51 0.48 0.51 0.58 0.73 0.84 0.94
0.63 0.69 0.80 0.86 0.83 0.86 0.91 1.03 1.17 1.31 1.55 1.50 1.16 1.02 1.03 1.15 1.26 1.18 1.04 0.95 0.88 1.15 1.06 1.04 1.08 1.05 0.96 0.90 0.92 0.98 0.97 0.77 0.56 0.48 0.49 0.53 0.71 0.88
0.46 0.50 0.48 0.62 0.78 0.85 1.06 1.21 1.13 1.01 0.87 0.77 0.71 0.63 0.57 0.56 0.64 0.68 0.65 0.57 0.49 0.50 0.57 0.57 0.65 0.69 0.78 0.81 0.73 0.70 0.78 0.96 1.07 0.99 0.80 0.73 0.70 0.75
0.81 0.70 0.81 0.83 0.98 0.97 0.73 0.55 0.59 0.60 0.64 0.66 0.53 0.39 0.32 0.26 0.27 0.29 0.33 0.39 0.44 0.50 0.41 0.34 0.27 0.23 0.28 0.43 0.59 0.72 0.74 0.78 0.88 1.03 1.10 1.04 1.00 1.03
0.76 0.90 0.77 0.94 0.74 0.72 0.64 0.52 0.38 0.36 0.33 0.28 0.21 0.13 0.10 0.12 0.16 0.24 0.35 0.48 0.49 0.33 0.35 0.31 0.27 0.21 0.16 0.16 0.28 0.41 0.55 0.64 0.71 0.74 0.87 1.06 1.06 1.03
0.43 0.43 0.35 0.36 0.42 0.36 0.40 0.35 0.30 0.25 0.20 0.14 0.10 0.07 0.07 0.08 0.18 0.26 0.27 0.33 0.24 0.12 0.26 0.35 0.30 0.31 0.22 0.24 0.25 0.23 0.34 0.45 0.51 0.59 0.68 0.77 0.94 1.15
0.25 0.19 0.12 0.08 0.08 0.10 0.14 0.15 0.09 0.11 0.16 0.19 0.17 0.17 0.21 0.25 0.32 0.45 0.34 0.28 0.16 0.09 0.17 0.28 0.16 0.23 0.20 0.22 0.32 0.30 0.34 0.35 0.37 0.43 0.52 0.65 0.75 0.84
0.08 0.03 0.02 0.01 0.04 0.05 0.06 0.03 0.01 0.01 0.09 0.18 0.29 0.41 0.49 0.51 0.41 0.42 0.51 0.54 0.40 0.14 0.09 0.16 0.11 0.15 0.16 0.17 0.20 0.29 0.32 0.38 0.46 0.53 0.48 0.50 0.63 0.74
0.03 0.03 0.03 0.03 0.05 0.08 0.10 0.06 0.08 0.02 0.06 0.08 0.11 0.19 0.28 0.33 0.39 0.31 0.28 0.57 0.54 0.62 0.29 0.47 0.27 0.24 0.53 0.16 0.15 0.22 0.25 0.30 0.33 0.40 0.65 0.75 0.69 0.70
0.03 0.02 0.02 0.04 0.10 0.13 0.14 0.09 0.13 0.12 0.10 0.09 0.06 0.11 0.18 0.28 0.33 0.35 0.37 0.55 0.84 0.68 0.18 0.87 1.06 0.52 0.91 0.35 0.08 0.11 0.14 0.20 0.28 0.34 0.45 0.63 0.87 0.90
0.04 0.03 0.02 0.08 0.13 0.11 0.12 0.11 0.15 0.17 0.10 0.06 0.07 0.08 0.15 0.22 0.28 0.36 0.49 0.61 0.63 0.74 0.36 0.62 1.48 0.71 1.09 0.87 0.34 0.13 0.16 0.18 0.24 0.30 0.37 0.58 0.76 0.89
0.04 0.07 0.10 0.11 0.11 0.08 0.08 0.11 0.11 0.09 0.09 0.13 0.10 0.09 0.11 0.16 0.31 0.51 0.65 0.74 0.86 0.82 0.76 0.83 1.07 0.90 1.24 1.28 0.66 0.26 0.31 0.28 0.24 0.27 0.37 0.52 0.64 0.72
0.07 0.10 0.14 0.13 0.12 0.10 0.11 0.11 0.09 0.11 0.17 0.24 0.19 0.14 0.19 0.29 0.43 0.50 0.67 0.65 0.89 0.72 0.72 0.90 0.90 1.17 1.50 0.95 0.89 0.65 0.30 0.50 0.40 0.38 0.46 0.45 0.53 0.70
0.39 0.25 0.18 0.12 0.10 0.11 0.11 0.12 0.19 0.26 0.33 0.31 0.39 0.43 0.40 0.40 0.40 0.39 0.62 0.81 0.98 0.63 0.54 0.58 0.79 0.90 0.95 0.97 1.15 0.62 0.44 0.38 0.33 0.51 0.60 0.54 0.45 0.66
0.46 0.29 0.17 0.13 0.12 0.13 0.18 0.23 0.28 0.36 0.38 0.47 0.54 0.55 0.63 0.62 0.56 0.56 0.62 0.77 0.76 0.51 0.58 0.64 0.71 1.04 0.97 0.80 0.76 0.70 0.66 0.44 0.32 0.33 0.45 0.86 0.48 0.33
0.41 0.15 0.11 0.13 0.15 0.17 0.24 0.31 0.33 0.27 0.40 0.62 0.71 0.71 0.78 0.82 0.83 0.74 0.57 0.69 0.66 0.53 0.57 0.69 0.93 1.36 1.57 0.73 0.40 0.45 0.85 0.70 0.47 0.45 0.44 0.56 0.60 0.35
0.20 0.14 0.10 0.12 0.19 0.28 0.32 0.39 0.44 0.46 0.52 0.56 0.66 0.67 0.82 1.01 0.88 0.68 0.61 0.71 0.75 0.70 0.68 0.63 0.72 0.96 1.69 1.16 1.10 0.45 0.41 0.82 0.99 0.72 0.44 0.41 0.55 0.47
0.09 0.16 0.13 0.16 0.28 0.37 0.43 0.54 0.65 0.66 0.62 0.77 0.69 0.67 0.64 1.01 0.87 0.59 0.68 0.62 0.78 0.87 0.72 0.37 0.28 0.57 1.07 1.51 1.54 0.63 0.53 0.57 0.81 1.20 0.95 0.96 0.53 0.42
0.11 0.21 0.24 0.31 0.40 0.50 0.60 0.65 0.73 0.61 0.60 0.55 0.49 0.54 0.61 0.83 0.94 0.77 0.69 0.85 0.62 0.47 0.47 0.38 0.52 0.70 0.94 1.36 0.87 0.43 0.41 0.45 0.51 0.51 0.70 1.40 1.68 1.45
0.30 0.41 0.42 0.44 0.51 0.64 0.75 0.78 0.67 0.49 0.41 0.52 0.54 0.53 0.65 0.86 0.62 0.70 0.73 0.72 0.68 0.79 0.61 0.61 0.57 0.63 0.74 0.76 0.84 0.70 0.49 0.41 0.35 0.37 0.41 0.42 0.44 0.47

GFSNE_prec_precacc_219.txt.gz
Total_Precipitation_Accumulation
1.55 1.47 1.48 1.35 1.39 1.53 1.75 2.11 2.67 2.44 1.53 0.97 0.94 0.97 1.06 1.19 1.41 1.29 1.15 1.37 1.31 1.17 1.10 1.11 0.99 1.03 1.00 1.06 1.19 1.13 1.37 1.67 1.65 1.61 1.69 1.81 1.66 1.65
1.61 1.68 1.65 1.62 1.60 1.46 1.42 1.56 1.80 2.21 2.02 1.17 1.07 1.11 1.34 1.62 2.09 1.98 1.87 2.09 1.63 1.34 1.20 0.95 0.80 0.67 0.60 0.61 0.65 0.67 0.77 1.04 1.27 1.36 1.44 1.70 2.15 2.11
1.83 2.10 2.25 2.32 2.45 2.43 2.52 2.68 2.78 2.86 2.80 1.84 1.48 1.40 1.41 1.45 1.45 1.33 1.36 1.29 1.35 1.53 1.27 1.12 0.88 0.71 0.63 0.57 0.54 0.50 0.50 0.57 0.74 0.89 1.05 1.12 1.24 1.61
0.81 1.06 1.17 1.31 1.53 1.61 1.81 1.99 2.33 2.77 3.17 2.50 1.86 1.73 1.60 1.47 1.26 0.99 0.90 0.94 0.97 1.28 1.25 1.17 1.06 0.94 0.92 0.92 0.82 0.69 0.58 0.51 0.48 0.51 0.58 0.73 0.84 0.94
0.65 0.72 0.83 0.92 0.95 0.97 1.02 1.10 1.20 1.35 1.60 1.54 1.19 1.06 1.08 1.22 1.32 1.22 1.07 0.98 0.91 1.17 1.08 1.05 1.08 1.05 0.96 0.90 0.92 0.98 0.97 0.77 0.56 0.48 0.49 0.53 0.71 0.88
0.48 0.53 0.54 0.68 0.86 1.01 1.34 1.54 1.41 1.25 1.02 0.85 0.74 0.67 0.62 0.62 0.69 0.71 0.67 0.58 0.49 0.50 0.57 0.57 0.65 0.69 0.78 0.81 0.73 0.70 0.78 0.96 1.07 0.99 0.80 0.73 0.70 0.75
0.86 0.83 0.94 0.96 1.11 1.07 0.90 0.79 0.81 0.76 0.79 0.82 0.62 0.45 0.40 0.36 0.35 0.35 0.38 0.43 0.47 0.50 0.41 0.34 0.27 0.23 0.28 0.43 0.59 0.72 0.74 0.78 0.88 1.03 1.10 1.04 1.00 1.03
0.90 1.01 1.00 1.20 0.93 0.92 0.81 0.70 0.55 0.60 0.54 0.39 0.34 0.29 0.24 0.22 0.23 0.28 0.38 0.50 0.51 0.34 0.35 0.31 0.27 0.21 0.16 0.16 0.28 0.41 0.55 0.64 0.71 0.74 0.87 1.06 1.06 1.03
0.49 0.51 0.40 0.43 0.53 0.49 0.59 0.54 0.49 0.43 0.38 0.33 0.25 0.16 0.14 0.15 0.27 0.34 0.31 0.36 0.26 0.13 0.26 0.35 0.30 0.31 0.22 0.24 0.25 0.23 0.34 0.45 0.51 0.59 0.68 0.77 0.94 1.15
0.28 0.21 0.16 0.14 0.20 0.23 0.30 0.34 0.35 0.30 0.30 0.30 0.29 0.27 0.26 0.28 0.33 0.46 0.35 0.28 0.16 0.09 0.17 0.28 0.16 0.23 0.20 0.22 0.32 0.30 0.34 0.35 0.37 0.43 0.52 0.65 0.75 0.84
0.08 0.04 0.04 0.02 0.06 0.14 0.14 0.19 0.18 0.12 0.18 0.25 0.33 0.43 0.50 0.51 0.41 0.42 0.51 0.54 0.40 0.14 0.09 0.16 0.11 0.15 0.16 0.17 0.20 0.29 0.32 0.38 0.46 0.53 0.48 0.50 0.63 0.74
0.03 0.03 0.04 0.03 0.05 0.08 0.10 0.07 0.09 0.02 0.06 0.08 0.11 0.19 0.28 0.33 0.39 0.31 0.28 0.57 0.54 0.62 0.29 0.47 0.27 0.24 0.53 0.16 0.15 0.22 0.25 0.30 0.33 0.40 0.65 0.75 0.69 0.70
0.03 0.02 0.02 0.04 0.10 0.13 0.14 0.09 0.13 0.12 0.10 0.09 0.06 0.11 0.18 0.28 0.33 0.35 0.37 0.55 0.84 0.68 0.18 0.87 1.06 0.52 0.91 0.35 0.08 0.11 0.14 0.20 0.28 0.34 0.45 0.63 0.87 0.90
0.04 0.03 0.02 0.08 0.13 0.11 0.12 0.11 0.15 0.17 0.10 0.06 0.07 0.08 0.15 0.22 0.28 0.36 0.49 0.61 0.63 0.74 0.36 0.62 1.48 0.71 1.09 0.87 0.34 0.13 0.16 0.18 0.24 0.30 0.37 0.58 0.76 0.89
0.04 0.07 0.10 0.11 0.11 0.08 0.08 0.11 0.11 0.09 0.09 0.13 0.10 0.09 0.11 0.16 0.31 0.51 0.65 0.74 0.86 0.82 0.76 0.83 1.07 0.90 1.24 1.28 0.66 0.26 0.31 0.28 0.24 0.27 0.37 0.52 0.64 0.72
0.07 0.10 0.14 0.13 0.12 0.10 0.11 0.11 0.09 0.11 0.17 0.24 0.19 0.14 0.19 0.29 0.43 0.50 0.67 0.65 0.89 0.72 0.72 0.90 0.90 1.17 1.50 0.95 0.90 0.65 0.30 0.50 0.40 0.38 0.46 0.45 0.53 0.70
0.39 0.25 0.18 0.12 0.10 0.11 0.11 0.12 0.19 0.26 0.33 0.31 0.39 0.43 0.40 0.40 0.40 0.39 0.62 0.81 0.98 0.63 0.54 0.58 0.79 0.90 0.95 0.97 1.15 0.62 0.44 0.38 0.33 0.51 0.60 0.54 0.45 0.66
0.46 0.29 0.17 0.13 0.12 0.13 0.18 0.23 0.28 0.36 0.38 0.47 0.54 0.55 0.63 0.62 0.56 0.56 0.62 0.77 0.76 0.51 0.58 0.64 0.71 1.04 0.97 0.80 0.76 0.70 0.66 0.44 0.32 0.33 0.45 0.86 0.48 0.33
0.41 0.15 0.11 0.13 0.15 0.17 0.24 0.31 0.33 0.27 0.40 0.62 0.71 0.71 0.78 0.82 0.83 0.74 0.57 0.69 0.66 0.53 0.57 0.69 0.94 1.39 1.60 0.74 0.40 0.45 0.85 0.70 0.47 0.45 0.44 0.56 0.60 0.35
0.20 0.14 0.10 0.12 0.19 0.28 0.32 0.39 0.44 0.46 0.52 0.56 0.66 0.67 0.82 1.01 0.88 0.68 0.61 0.71 0.75 0.70 0.68 0.63 0.73 1.00 1.73 1.17 1.12 0.45 0.41 0.82 0.99 0.72 0.44 0.41 0.55 0.47
0.09 0.16 0.13 0.16 0.28 0.37 0.43 0.54 0.65 0.66 0.62 0.77 0.69 0.67 0.64 1.01 0.88 0.59 0.68 0.62 0.79 0.90 0.75 0.38 0.28 0.59 1.10 1.54 1.56 0.63 0.53 0.57 0.81 1.20 0.95 0.98 0.54 0.42
0.11 0.21 0.24 0.31 0.40 0.50 0.60 0.65 0.73 0.61 0.60 0.55 0.49 0.55 0.62 0.84 0.95 0.78 0.70 0.87 0.63 0.50 0.48 0.39 0.52 0.72 0.95 1.37 0.88 0.43 0.41 0.45 0.51 0.51 0.70 1.40 1.70 1.49
0.30 0.41 0.42 0.44 0.51 0.64 0.75 0.78 0.68 0.50 0.42 0.53 0.55 0.54 0.66 0.87 0.63 0.72 0.74 0.74 0.69 0.80 0.62 0.62 0.57 0.64 0.74 0.76 0.84 0.70 0.49 0.41 0.35 0.37 0.41 0.42 0.44 0.47

GFSNE_prec_precacc_222.txt.gz
Total_Precipitation_Accumulation
1.56 1.48 1.49 1.36 1.41 1.57 1.84 2.20 2.73 2.47 1.53 0.97 0.94 0.97 1.07 1.19 1.41 1.29 1.16 1.49 1.43 1.32 1.29 1.25 1.04 1.04 1.01 1.06 1.19 1.13 1.37 1.67 1.65 1.61 1.69 1.81 1.66 1.65
1.62 1.70 1.67 1.63 1.61 1.46 1.44 1.65 1.92 2.28 2.06 1.18 1.07 1.11 1.34 1.62 2.09 1.99 1.88 2.18 1.74 1.46 1.30 1.04 0.87 0.71 0.62 0.62 0.65 0.67 0.77 1.04 1.27 1.36 1.44 1.70 2.15 2.11
1.83 2.11 2.25 2.33 2.46 2.43 2.52 2.69 2.83 2.98 2.90 1.86 1.48 1.40 1.41 1.45 1.45 1.33 1.37 1.30 1.36 1.58 1.33 1.19 0.96 0.78 0.67 0.59 0.54 0.50 0.50 0.57 0.74 0.89 1.05 1.12 1.24 1.61
0.81 1.06 1.17 1.32 1.54 1.63 1.81 1.99 2.33 2.79 3.21 2.52 1.87 1.73 1.60 1.47 1.26 0.99 0.91 0.94 0.97 1.33 1.29 1.22 1.11 0.97 0.93 0.93 0.82 0.69 0.58 0.51 0.48 0.51 0.58 0.73 0.84 0.94
0.65 0.72 0.84 0.93 0.97 1.00 1.03 1.11 1.20 1.36 1.63 1.59 1.24 1.08 1.09 1.22 1.32 1.22 1.08 1.00 0.93 1.22 1.10 1.07 1.10 1.06 0.97 0.90 0.93 0.98 0.97 0.77 0.56 0.48 0.49 0.53 0.71 0.88
0.49 0.54 0.54 0.70 0.89 1.04 1.36 1.56 1.44 1.35 1.20 0.99 0.83 0.72 0.64 0.63 0.69 0.72 0.68 0.59 0.51 0.51 0.59 0.58 0.66 0.70 0.78 0.81 0.73 0.70 0.78 0.96 1.07 0.99 0.80 0.73 0.70 0.75
0.87 0.85 0.95 0.97 1.14 1.13 0.97 0.87 0.96 0.94 0.98 1.05 0.86 0.57 0.46 0.38 0.35 0.36 0.40 0.46 0.50 0.53 0.43 0.35 0.28 0.24 0.28 0.43 0.59 0.72 0.74 0.78 0.88 1.03 1.10 1.04 1.00 1.03
0.94 1.03 1.03 1.27 1.00 1.04 0.95 0.84 0.77 0.74 0.61 0.46 0.40 0.35 0.32 0.27 0.25 0.30 0.40 0.54 0.55 0.37 0.38 0.33 0.27 0.21 0.16 0.16 0.28 0.41 0.55 0.64 0.71 0.74 0.87 1.06 1.06 1.03
0.51 0.55 0.43 0.45 0.55 0.52 0.65 0.63 0.59 0.49 0.41 0.38 0.32 0.23 0.21 0.20 0.31 0.37 0.36 0.42 0.31 0.16 0.28 0.37 0.31 0.31 0.22 0.24 0.25 0.23 0.34 0.45 0.51 0.59 0.68 0.77 0.94 1.15
0.29 0.21 0.16 0.14 0.20 0.23 0.31 0.38 0.40 0.35 0.33 0.31 0.31 0.31 0.31 0.32 0.39 0.53 0.43 0.36 0.19 0.10 0.17 0.29 0.17 0.23 0.20 0.22 0.32 0.30 0.34 0.35 0.37 0.43 0.52 0.65 0.75 0.84
0.08 0.04 0.04 0.02 0.06 0.15 0.15 0.20 0.23 0.21 0.32 0.38 0.43 0.52 0.59 0.56 0.44 0.45 0.52 0.54 0.40 0.14 0.09 0.16 0.11 0.15 0.16 0.17 0.20 0.29 0.32 0.38 0.46 0.53 0.48 0.50 0.63 0.74
0.03 0.03 0.04 0.03 0.05 0.08 0.10 0.07 0.10 0.03 0.06 0.09 0.11 0.19 0.28 0.33 0.39 0.31 0.28 0.57 0.54 0.62 0.29 0.47 0.27 0.24 0.53 0.16 0.15 0.22 0.25 0.30 0.33 0.40 0.65 0.75 0.69 0.70
0.03 0.02 0.02 0.04 0.10 0.13 0.14 0.09 0.13 0.12 0.10 0.09 0.06 0.11 0.18 0.28 0.33 0.35 0.37 0.55 0.84 0.68 0.18 0.87 1.06 0.52 0.91 0.35 0.08 0.11 0.14 0.20 0.28 0.34 0.45 0.63 0.87 0.90
0.04 0.03 0.02 0.08 0.13 0.11 0.12 0.11 0.15 0.17 0.10 0.06 0.07 0.08 0.15 0.22 0.28 0.36 0.49 0.61 0.63 0.74 0.36 0.62 1.48 0.71 1.09 0.87 0.34 0.13 0.16 0.18 0.24 0.30 0.37 0.58 0.76 0.89
0.04 0.07 0.10 0.11 0.11 0.08 0.08 0.11 0.11 0.09 0.09 0.13 0.10 0.09 0.11 0.16 0.31 0.51 0.65 0.74 0.86 0.82 0.76 0.83 1.07 0.90 1.24 1.28 0.66 0.26 0.31 0.28 0.24 0.27 0.37 0.52 0.64 0.72
0.07 0.10 0.14 0.13 0.12 0.10 0.11 0.11 0.09 0.11 0.17 0.24 0.19 0.14 0.19 0.29 0.43 0.50 0.67 0.65 0.89 0.72 0.72 0.90 0.90 1.17 1.50 0.95 0.90 0.65 0.30 0.50 0.40 0.38 0.46 0.45 0.53 0.70
0.39 0.25 0.18 0.12 0.10 0.11 0.11 0.12 0.19 0.26 0.33 0.31 0.39 0.43 0.40 0.40 0.40 0.39 0.62 0.81 0.98 0.63 0.54 0.58 0.79 0.90 0.95 0.97 1.15 0.62 0.44 0.38 0.33 0.51 0.60 0.54 0.45 0.66
0.46 0.29 0.17 0.13 0.12 0.13 0.18 0.23 0.28 0.36 0.38 0.47 0.54 0.55 0.63 0.62 0.56 0.56 0.62 0.77 0.76 0.51 0.58 0.64 0.71 1.04 0.97 0.80 0.76 0.70 0.66 0.44 0.32 0.33 0.45 0.86 0.48 0.33
0.41 0.15 0.11 0.13 0.15 0.17 0.24 0.31 0.33 0.27 0.40 0.62 0.71 0.71 0.78 0.82 0.83 0.74 0.57 0.69 0.66 0.53 0.57 0.69 0.94 1.40 1.61 0.74 0.40 0.45 0.85 0.70 0.47 0.45 0.44 0.56 0.60 0.35
0.20 0.14 0.10 0.12 0.19 0.28 0.32 0.39 0.44 0.46 0.52 0.56 0.66 0.67 0.82 1.01 0.88 0.68 0.61 0.72 0.76 0.71 0.68 0.64 0.74 1.02 1.76 1.19 1.13 0.45 0.41 0.82 0.99 0.72 0.44 0.41 0.55 0.47
0.09 0.16 0.13 0.16 0.28 0.37 0.43 0.54 0.65 0.66 0.62 0.77 0.69 0.67 0.65 1.01 0.88 0.59 0.69 0.63 0.80 0.91 0.76 0.38 0.28 0.60 1.11 1.55 1.57 0.63 0.53 0.57 0.81 1.20 0.95 0.98 0.54 0.42
0.11 0.21 0.24 0.31 0.40 0.50 0.60 0.65 0.73 0.61 0.60 0.55 0.49 0.55 0.62 0.84 0.95 0.79 0.71 0.88 0.64 0.50 0.49 0.39 0.52 0.72 0.95 1.37 0.88 0.43 0.41 0.45 0.51 0.51 0.70 1.41 1.71 1.50
0.30 0.41 0.42 0.44 0.51 0.64 0.75 0.78 0.68 0.50 0.42 0.54 0.55 0.54 0.66 0.88 0.63 0.72 0.74 0.74 0.70 0.81 0.62 0.62 0.57 0.64 0.74 0.76 0.84 0.70 0.49 0.41 0.35 0.37 0.41 0.42 0.44 0.47